Weather Roundup
Issued by NWS Chicago, IL

Home | Current Version | Previous Version | Text Only | Print | Product List | Glossary On
Versions: 1 2 3 4 5 6 7 8 9 10 11 12 13 14 15 16 17 18 19 20 21 22 23 24 25 26 27 28 29 30 31 32 33 34 35 36 37 38 39 40 41 42 43 44 45 46 47 48 49 50
497
NZUS59 KLOT 250208
HRRLOT

CHICAGO AREA WEATHER ROUNDUP
NATIONAL WEATHER SERVICE CHICAGO/ROMEOVILLE IL
900 PM CDT SUN JUL 24 2016

NOTE: "FAIR" INDICATES FEW OR NO CLOUDS BELOW 12,000 FEET WITH NO
SIGNIFICANT WEATHER AND/OR OBSTRUCTIONS TO VISIBILITY.

* THESE STATIONS ARE NOT UNDER NWS QUALITY CONTROL. THEY ALSO MAY NOT
  REPORT WEATHER SUCH AS PRECIPITATION OR FOG.

ILZ005-006-012>014-019>023-250300-
NORTHEAST ILLINOIS

CITY           SKY/WX    TMP DP  RH WIND       PRES   REMARKS
OHARE          CLOUDY    75  72  90 S7        29.88R
MIDWAY         CLOUDY    76  68  76 W6        29.88F
AURORA         CLOUDY    77  70  79 W5        29.89S
LANSING*       TSTM      72  64  77 S6        29.89F
JOLIET*        CLOUDY    80  71  73 SW5       29.89F HX  83
WAUKEGAN       CLOUDY    81  70  69 SW14      29.87R THUNDER HX  84
DUPAGE AIRPORT CLOUDY    80  68  66 SW6       29.88F HX  83
WHEELING       CLOUDY    77  70  79 SW7       29.88F
MORRIS*        CLOUDY    74  70  88 S5        29.89S
LEWIS AIRPORT* CLOUDY    76  71  83 W3        29.88F
NORTHERLY ISL    N/A     77  63  61 SW5         N/A
$$

WIZ051-052-058>065-066-070>072-250300-
SOUTHEAST WISCONSIN

CITY           SKY/WX    TMP DP  RH WIND       PRES   REMARKS
MILWAUKEE      CLOUDY    88  75  65 NW8       29.85R HX  97
KENOSHA*       CLOUDY    84  78  82 W7        29.88R THUNDER HX  95
RACINE*        CLOUDY    83  79  88 W5        29.87R HX  94
BURLINGTON     CLOUDY    84  76  77 W9        29.88R HX  92
WAUKESHA       PTCLDY    81  70  69 W12       29.88R HX  84
$$

INZ001>003-010>013-019-020-250300-
NORTHWEST INDIANA

CITY           SKY/WX    TMP DP  RH WIND       PRES   REMARKS
GARY*          NOT AVBL
MICHIGAN CITY* NOT AVBL
RENSSELAER*    NOT AVBL
VALPARAISO     TSTM      71  66  84 SW9       29.92F
$$

LMZ740>746-250300-
SOUTHERN LAKE MICHIGAN

STATION/POSITION TIME  SKY/WX   TEMP WIND        PRES    VSBY
                                AIR  DIR/SP/G
                 (UTC)          (F)  (DEG/KT/KT) (MB)    (MI)
HARRISON CRIB    0100            76  200/ 24/ 25   N/A
BURNHAM HARBOR   0200            77  250/  5/ 17   N/A
CALUMET HARBOR   0100            71  160/  8/ 16   N/A
BURNS HARBOR     0121            73  220/ 20     1012.9S
MICHIGAN CITY    0100            74  210/ 26/ 29   N/A
$$

ABBREVIATIONS USED IN REMARKS
   TC - TEMPERATURE IN CELSIUS
  WCI - WIND CHILL INDEX
   HX - HEAT INDEX
  VSB - VISIBILITY
$$




USA.gov is the U.S. government's official web portal to all federal, state and local government web resources and services.